This is the latest recevied weather packets stored in our database for station/object N8HKU-5. If no packets are shown the sender has not sent any weather packets the latest 10 day(s).
| Time | Temp. | Humidity | Pressure | Rain* | Wind** | Luminosity | Snow |
|---|---|---|---|---|---|---|---|
| 1777350154 | 16.11° C | 90% | 1006.7 hPa | 1.02 mm | - | - | - |
| 1777349555 | 16.11° C | 89% | 1006.8 hPa | 1.02 mm | - | - | - |
| 1777348954 | 16.67° C | 88% | 1007 hPa | 0.51 mm | - | - | - |
| 1777348354 | 16.67° C | 87% | 1006.8 hPa | 0 mm | - | - | - |
| 1777347754 | 16.67° C | 87% | 1006.5 hPa | 0 mm | - | - | - |
| 1777347154 | 16.67° C | 87% | 1006.3 hPa | 0 mm | - | - | - |
| 1777346554 | 16.67° C | 86% | 1006.1 hPa | 0 mm | - | - | - |
| 1777345954 | 16.67° C | 86% | 1005.9 hPa | 0 mm | - | - | - |
| 1777345354 | 16.67° C | 85% | 1006.1 hPa | 0 mm | - | - | - |
| 1777344754 | 17.22° C | 85% | 1006.1 hPa | 0 mm | - | - | - |
| 1777344154 | 17.22° C | 84% | 1006.2 hPa | 0 mm | - | - | - |
| 1777343554 | 17.22° C | 84% | 1006.6 hPa | 0 mm | - | - | - |
| 1777342954 | 17.22° C | 84% | 1006.1 hPa | 0 mm | - | - | - |
| 1777342354 | 17.22° C | 84% | 1005.8 hPa | 0 mm | - | - | - |
| 1777341754 | 17.22° C | 84% | 1005.9 hPa | 0 mm | - | - | - |
| 1777341154 | 16.67° C | 86% | 1006.1 hPa | 0 mm | - | - | - |
| 1777340554 | 16.11° C | 88% | 1006 hPa | 0 mm | - | - | - |
| 1777339955 | 15° C | 88% | 1006.2 hPa | 0 mm | - | - | - |
| 1777339354 | 14.44° C | 87% | 1006.4 hPa | 0 mm | - | - | - |
| 1777338754 | 13.89° C | 86% | 1006.6 hPa | 0 mm | - | - | - |
| 1777338154 | 13.89° C | 85% | 1006.8 hPa | 0 mm | - | - | - |
| 1777337554 | 13.89° C | 83% | 1006.7 hPa | 0 mm | - | - | - |
| 1777336955 | 13.89° C | 83% | 1006.6 hPa | 0 mm | - | - | - |
| 1777336354 | 14.44° C | 82% | 1006.7 hPa | 0 mm | - | - | - |
| 1777335754 | 14.44° C | 81% | 1007.1 hPa | 0 mm | - | - | - |
* Rain latest hour (hover to see other rain measurements)
** Current wind speed in m/s (hover to see current wind gust speed)